Regional Weather Roundup
Issued by NWS

Home | Current Version | Previous Version | Graphics & Text | Print | Product List | Glossary On
Versions: 1 2 3 4 5 6 7 8 9 10 11 12 13 14 15 16 17 18 19 20 21 22 23 24 25 26 27 28 29 30 31 32 33 34 35 36 37 38 39 40 41 42 43 44 45 46 47 48 49 50
000
ASUS43 KDTX 232110
RWRMI
MICHIGAN HOURLY REGIONAL WEATHER ROUNDUP
NATIONAL WEATHER SERVICE DETROIT/PONTIAC MI
400 PM EST THU NOV 23 2017

NOTE: "FAIR" INDICATES FEW OR NO CLOUDS BELOW 12,000 FEET WITH NO
SIGNIFICANT WEATHER AND/OR OBSTRUCTION TO VISIBILITY.

MIZ047>049-052>055-059>063-066>070-074>076-081>083-232200-
SOUTHEAST LOWER MICHIGAN

CITY           SKY/WX    TMP DP  RH WIND       PRES   REMARKS
ADRIAN         PTCLDY    37  24  59 SW10      29.97S WCI  30
ALMA           CLOUDY    41  28  58 SW8       29.89S
ANN ARBOR      CLEAR     38  22  52 S7        29.94F WCI  33
BAD AXE        CLOUDY    37  24  60 SW9       29.90R WCI  30
CARO           CLOUDY    37  24  60 SW9G16    29.90S WCI  30
DETROIT CITY   CLOUDY    38  21  50 SW13      29.95F WCI  30
DETROIT        PTCLDY    39  24  55 SW14      29.97F WCI  31
FLINT          MOCLDY    39  20  46 SW8       29.91F WCI  33
GROSSE ILE     CLEAR     39  24  55 SW8       29.96F WCI  33
HILLSDALE      SUNNY     37  19  48 S9        29.93S WCI  31
HOWELL         CLEAR     40  19  42 SW12      29.91S WCI  33

CITY           SKY/WX    TMP DP  RH WIND       PRES   REMARKS
JACKSON        CLEAR     40  19  43 S10       29.92F WCI  33
LAMBERTVILLE   MOCLDY    41  24  52 SW7       29.98S
LANSING        CLEAR     41  20  43 SW15      29.91F
LAPEER         CLOUDY    37  23  56 SW6       29.91S WCI  32
MASON          CLEAR     42  20  41 SW8       29.91F
MONROE         CLEAR     41  23  48 S12       29.96F
MT. CLEMENS    CLOUDY    39  24  54 S14       29.92F WCI  31
PONTIAC        MOCLDY    38  23  55 S13       29.90F WCI  30
PORT HOPE        N/A     37  25  61 SW7       29.88R WCI  32
PORT HURON     CLOUDY    36  23  60 S8        29.93F WCI  29
TRI CITIES     CLOUDY    39  27  62 SW10      29.90R WCI  32
MIDLAND        MOCLDY    39  27  61 SW6       29.88R
TROY           MOCLDY    41  21  44 SW12G20   29.95S
SAGINAW HB     CLOUDY    37  25  60 SW9       29.89S WCI  31
$$
MIZ043>046-050>051-056>058-064>065-071>073-077>080-232200-
SOUTHWEST LOWER MICHIGAN

CITY           SKY/WX    TMP DP  RH WIND       PRES   REMARKS
BATTLE CREEK   SUNNY     40  23  50 S14       29.92F WCI  32
BENTON HARBOR  SUNNY     45  22  40 SW13      29.92F
BIG RAPIDS     CLOUDY    39  26  59 W8        29.87R WCI  34
COLDWATER      SUNNY     41  18  39 SW9       29.93F
FREMONT        CLOUDY    40  29  64 SW10      29.89R WCI  33
HOLLAND        MOSUNNY   42  29  59 SW14G24   29.92F
GRAND RAPIDS   PTSUNNY   42  29  59 W12       29.90F
IONIA          FAIR      42  22  45 SW8       29.89S
KALAMAZOO      SUNNY     42  19  39 SW12      29.93S
LUDINGTON      CLEAR     38  26  61 SW8       29.89F WCI  32
MARSHALL       SUNNY     40  20  45 SW8       29.92S WCI  34
MOUNT PLEASANT CLOUDY    42  27  56 SW12      29.88R
MUSKEGON       CLOUDY    41  28  60 SW12      29.92R
SOUTH HAVEN    SUNNY     44  24  44 W10G20    29.92S
$$
MIZ016>042-232200-
NORTHERN LOWER MICHIGAN

CITY           SKY/WX    TMP DP  RH WIND       PRES   REMARKS
ALPENA         CLOUDY    39  26  59 W6        29.85R WCI  35
BEAVER ISLAND  PTCLDY    37  27  66 W13G20    29.85S WCI  29
BELLAIRE       CLOUDY    38  29  69 W6        29.88R WCI  34
CADILLAC       CLOUDY    38  24  59 SW12      29.85R WCI  30
CHARLEVOIX     CLOUDY    38  28  67 W14       29.88S WCI  30
FRANKFORT      CLEAR     40  26  56 SW5       29.88S
GAYLORD        CLOUDY    35  24  64 W10       29.84R WCI  27
GRAYLING       CLOUDY    39  23  54 W8        29.85R WCI  33
HARBOR SPRINGS CLOUDY    38  29  71 W13G21    29.84R WCI  30
HOUGHTON LAKE  CLOUDY    39  26  59 W9        29.85R WCI  33
MANISTEE       PTCLDY    39  26  59 W8        29.89R WCI  33
OSCODA         CLOUDY    39  23  52 SW12      29.85R WCI  32
PELLSTON       CLOUDY    37  27  67 W10       29.85R WCI  30
ROGERS CITY    CLOUDY    37  28  68 W7        29.85R WCI  32
TRAVERSE CITY  MOCLDY    40  25  55 W14       29.87R WCI  32
$$
MIZ007>008-015-232200-
EASTERN UPPER MICHIGAN

CITY           SKY/WX    TMP DP  RH WIND       PRES   REMARKS
KINROSS        CLOUDY    33  22  63 W10G16    29.83R WCI  25
MACKINAC ISLAN CLOUDY    37  26  66 W18G25    29.83R WCI  26
NEWBERRY       CLOUDY    32  25  74 W6        29.82R WCI  26
S. S. MARIE    CLOUDY    33  25  72 SW9       29.80S WCI  25
MUNISING         N/A     36  26  67 NW5       29.82S WCI  32
$$
MIZ004>006-011>014-085-232200-
CENTRAL UPPER MICHIGAN

CITY           SKY/WX    TMP DP  RH WIND       PRES   REMARKS
MANISTIQUE     CLOUDY    37  12  34 CALM      29.83R
ESCANABA       CLEAR     40  21  46 SW7       29.84R
MENOMINEE      CLEAR     41  21  44 W6        29.86S
SAWYER-GWINN   MOCLDY    37  21  52 NW5       29.80S WCI  34
$$
MIZ001>003-009>011-084-232200-
WESTERN UPPER MICHIGAN

CITY           SKY/WX    TMP DP  RH WIND       PRES   REMARKS
IRON MOUNTAIN  CLEAR     41  19  41 W3        29.80S
HOUGHTON       CLOUDY    33  26  75 W10       29.78F WCI  25
COPPER HARBOR    N/A     35  27  72 NW10G17   29.79S WCI  27
IRONWOOD       SUNNY     39  22  50 S6        29.77F WCI  35
$$

ABBREVIATIONS USED IN REMARKS
   TC - TEMPERATURE IN CELSIUS
  WCI - WIND CHILL INDEX
   HX - HEAT INDEX
  VSB - VISIBILITY




USA.gov is the U.S. government's official web portal to all federal, state and local government web resources and services.